Museu de l'Esquerda (Osona)





Hora UTC 08:00
Temperatura 8.2 ºC
Humitat 97.0 %
Pressió 1002.7 hPa
Pluja 0.2 mm
Velocitat vent 1.6 km/h
Direcció vent SW

Dades diàries 2022-12-10



Hora UTC (hivern +1h; estiu +2h)
Temperatura (ºC) Humitat (%) Pressió (hPa) Velocitat vent (km/h) Precipitació (mm)
Hora UTC Aire Humitat Pressió Vel. Dir. Vel. Max Dir. Intent. màx 5 min.
00:05 8.5 96.0 1000.6 1.6 NE 1.6 0.0
00:10 8.4 96.0 1000.5 1.6 NE 3.2 0.0
00:15 8.4 96.0 1000.6 3.2 NE 3.2 0.0
00:20 8.4 96.0 1000.4 1.6 NE 3.2 0.2
00:25 8.3 96.0 1000.5 1.6 NE 4.8 0.0
00:30 8.3 96.0 1000.5 1.6 NE 4.8 0.0
00:35 8.3 96.0 1000.3 0.0 NE 3.2 0.0
00:40 8.3 96.0 1000.5 0.0 NE 3.2 0.0
00:45 8.3 96.0 1000.5 0.0 NE 1.6 0.0
00:50 8.4 97.0 1000.5 0.0 NE 1.6 0.0
00:55 8.4 97.0 1000.4 0.0 NE 1.6 0.0
01:00 8.4 96.0 1000.4 0.0 NE 1.6 0.0
01:05 8.3 96.0 1000.5 0.0 NE 0.0 0.0
01:10 8.3 97.0 1000.4 0.0 NE 0.0 0.0
01:15 8.3 97.0 1000.5 0.0 NE 0.0 0.0
01:20 8.3 97.0 1000.6 0.0 NE 0.0 0.0
01:25 8.2 96.0 1000.5 0.0 NE 0.0 0.0
01:30 8.2 96.0 1000.5 0.0 NE 0.0 0.0
01:35 8.2 96.0 1000.6 0.0 NE 0.0 0.0
01:40 8.2 97.0 1000.6 0.0 NE 0.0 0.0
01:45 8.2 97.0 1000.6 0.0 NE 0.0 0.0
01:45 8.2 97.0 1000.7 1.6 NE 1.6 0.0
01:55 8.1 97.0 1000.8 1.6 NE 3.2 0.0
01:55 8.1 97.0 1000.8 1.6 NE 3.2 0.0
02:00 8.1 97.0 1000.8 1.6 NE 3.2 0.0
02:05 8.2 97.0 1000.8 1.6 NE 3.2 0.0
02:10 8.2 97.0 1000.8 0.0 NE 3.2 0.0
02:15 8.2 97.0 1000.9 0.0 NE 1.6 0.0
02:20 8.1 97.0 1000.8 0.0 NE 0.0 0.0
02:25 7.9 97.0 1000.8 1.6 NE 1.6 0.0
02:30 8.1 97.0 1000.8 0.0 NE 3.2 0.0
02:35 8.0 97.0 1000.8 0.0 NE 1.6 0.0
02:40 7.9 97.0 1000.9 0.0 NE 1.6 0.0
02:45 7.9 97.0 1000.9 1.6 NE 1.6 0.0
02:50 7.8 97.0 1001.0 0.0 NE 1.6 0.0
03:00 7.7 97.0 1001.0 0.0 NE 1.6 0.0
03:05 7.7 97.0 1000.9 1.6 NE 3.2 0.0
03:10 7.8 97.0 1000.9 1.6 ENE 3.2 0.0
03:15 7.9 97.0 1001.1 0.0 ENE 3.2 0.0
03:20 8.1 97.0 1000.9 1.6 ENE 1.6 0.0
03:25 7.8 97.0 1001.0 0.0 ENE 1.6 0.0
03:30 7.9 97.0 1000.9 0.0 ENE 3.2 0.0
03:35 7.8 97.0 1000.9 0.0 ENE 3.2 0.0
03:40 7.9 97.0 1001.0 0.0 ENE 1.6 0.0
03:45 7.9 97.0 1001.0 0.0 ENE 1.6 0.0
03:50 8.0 97.0 1000.9 0.0 ENE 1.6 0.0
03:55 7.9 97.0 1001.0 0.0 ENE 0.0 0.0
04:00 7.9 97.0 1000.9 0.0 ENE 1.6 0.0
04:05 7.7 97.0 1000.9 1.6 ENE 1.6 0.0
04:10 7.6 97.0 1001.0 1.6 ENE 1.6 0.0
04:15 7.6 97.0 1001.0 0.0 ENE 1.6 0.0
04:20 7.8 97.0 1001.1 1.6 ENE 4.8 0.0
04:25 7.8 97.0 1001.0 0.0 ENE 4.8 0.0
04:30 7.9 97.0 1001.1 0.0 ENE 1.6 0.0
04:35 7.8 97.0 1001.1 1.6 ENE 1.6 0.0
04:40 7.9 97.0 1001.1 0.0 ENE 1.6 0.0
04:45 7.8 97.0 1000.9 0.0 ENE 1.6 0.0
04:50 7.8 97.0 1001.0 0.0 ENE 1.6 0.0
04:55 8.1 97.0 1001.0 1.6 ESE 3.2 0.0
05:00 8.1 97.0 1001.1 0.0 ESE 3.2 0.0
05:05 8.0 97.0 1001.0 0.0 ESE 0.0 0.0
05:10 7.9 97.0 1001.1 0.0 ESE 0.0 0.0
05:15 7.9 97.0 1001.0 0.0 ESE 0.0 0.0
05:20 8.0 97.0 1001.1 0.0 ESE 0.0 0.0
05:25 8.1 97.0 1001.0 0.0 ESE 0.0 0.0
05:30 8.0 97.0 1001.1 0.0 ESE 0.0 0.0
05:35 8.1 97.0 1001.2 0.0 ESE 1.6 0.0
05:40 8.1 97.0 1001.2 1.6 ESE 3.2 0.0
05:45 8.0 97.0 1001.3 0.0 ESE 1.6 0.0
05:50 8.0 97.0 1001.4 0.0 ESE 1.6 0.0
05:55 8.0 97.0 1001.5 1.6 ESE 3.2 0.0
06:00 8.1 97.0 1001.5 1.6 ESE 3.2 0.0
06:05 8.0 97.0 1001.5 1.6 SSW 4.8 0.0
06:10 8.0 97.0 1001.6 3.2 SSW 4.8 0.0
06:15 7.9 97.0 1001.6 1.6 SSW 4.8 0.0
06:20 7.9 97.0 1001.6 4.8 SW 4.8 0.0
06:25 7.9 97.0 1001.7 0.0 SW 4.8 0.0
06:30 7.8 97.0 1001.8 0.0 SW 3.2 0.0
06:35 7.9 97.0 1002.0 1.6 SW 3.2 0.0
06:40 7.9 97.0 1002.0 1.6 SW 3.2 0.0
06:45 7.9 97.0 1002.2 0.0 SW 3.2 0.0
06:50 7.9 97.0 1002.1 0.0 SW 1.6 0.0
06:55 7.9 98.0 1002.1 0.0 SW 1.6 0.0
07:00 7.9 97.0 1002.1 1.6 SW 3.2 0.0
07:05 7.9 97.0 1002.2 0.0 SW 3.2 0.0
07:10 7.9 97.0 1002.3 0.0 SW 1.6 0.0
07:15 8.0 97.0 1002.2 0.0 SW 3.2 0.0
07:20 8.0 98.0 1002.3 0.0 SW 3.2 0.0
07:25 8.0 97.0 1002.3 0.0 SW 1.6 0.0
07:30 8.1 97.0 1002.4 0.0 SW 3.2 0.0
07:35 8.1 97.0 1002.4 0.0 SW 3.2 0.0
07:40 8.1 97.0 1002.5 1.6 SW 3.2 0.0
07:45 8.2 98.0 1002.5 0.0 SW 3.2 0.0
07:50 8.2 98.0 1002.6 0.0 SW 3.2 0.0
07:55 8.2 97.0 1002.6 1.6 SW 1.6 0.0
08:00 8.2 97.0 1002.7 1.6 SW 1.6 0.0
Màxima 8.5 98.0 1002.7 4.8 SW 4.8 0.2
Mínima 7.6 96.0 1000.3
Total 0.2